Date String (YYYY-MM-DD hh:mm:ss) UTC,Instrument flags,Ambient pressure (hPa),Sample flow (lpm),Bypass flow (lpm),Sample temperature (°C),Ambient temperature (°C),ASC tube jacket temperature (°C),LED temperature (°C),Box temperature (°C),Sample RH (%),Span deviation,Mass concentration (μg/m³),Mass concentration (μg/m³),Mass concentration (μg/m³)
DateTimeUTC,F1_M11,P_M11,Q1_M11,Q2_M11,T1_M11,T2_M11,T3_M11,T4_M11,T5_M11,U1_M11,ZSPAN_M11,X0_M11,X2_M11,X1_M11
2023-04-25 07:00:00,,0823.2,5.00,0.00,26.3,24.6,00.0,34.8,27.8,18.3,0000.0,0005.75,0003.65,0003.17
2023-04-25 07:01:00,,0823.3,5.00,0.00,26.3,24.4,00.0,34.8,27.7,18.0,0000.0,0005.95,0003.68,0003.18
2023-04-25 07:02:00,,0823.3,5.01,0.00,26.2,24.3,00.0,34.8,27.6,17.4,0000.0,0006.07,0003.70,0003.19
2023-04-25 07:03:00,,0823.3,5.00,0.00,26.1,24.1,00.0,34.7,27.5,17.4,0000.0,0006.31,0003.76,0003.23
2023-04-25 07:04:00,,0823.1,5.00,0.00,26.1,24.0,00.0,34.7,27.5,17.3,0000.0,0006.46,0003.77,0003.26
2023-04-25 07:05:00,,0823.1,4.99,0.00,26.0,23.9,00.0,34.7,27.5,17.1,0000.0,0006.39,0003.74,0003.26
2023-04-25 07:06:00,,0823.2,4.99,0.00,26.0,23.9,00.0,34.6,27.4,17.3,0000.0,0006.47,0003.74,0003.27
2023-04-25 07:07:00,,0823.2,5.00,0.00,26.0,23.9,00.0,34.6,27.4,17.5,0000.0,0006.50,0003.71,0003.26
2023-04-25 07:08:00,,0823.1,5.00,0.00,25.9,23.9,00.0,34.6,27.4,17.5,0000.0,0006.41,0003.70,0003.26
2023-04-25 07:09:00,,0823.1,5.00,0.00,25.9,23.9,00.0,34.6,27.4,17.5,0000.0,0006.16,0003.65,0003.25
2023-04-25 07:10:00,,0823.1,5.01,0.00,25.8,23.8,00.0,34.5,27.3,17.5,0000.0,0006.14,0003.66,0003.25
2023-04-25 07:11:00,,0823.1,5.00,0.00,25.8,23.8,00.0,34.5,27.3,17.8,0000.0,0006.09,0003.64,0003.24
2023-04-25 07:12:00,,0823.3,5.00,0.00,25.8,23.8,00.0,34.5,27.3,17.8,0000.0,0006.01,0003.62,0003.23
2023-04-25 07:13:00,,0823.3,5.00,0.00,25.7,23.8,00.0,34.4,27.2,18.4,0000.0,0006.44,0003.60,0003.20
2023-04-25 07:14:00,,0823.2,4.99,0.00,25.7,23.8,00.0,34.4,27.3,18.7,0000.0,0007.34,0003.53,0003.16
2023-04-25 07:15:00,,0823.2,4.99,0.00,25.7,23.8,00.0,34.4,27.3,18.9,0000.0,0007.26,0003.48,0003.12
2023-04-25 07:16:00,,0823.2,5.01,0.00,25.7,23.9,00.0,34.4,27.3,18.8,0000.0,0007.19,0003.45,0003.10
2023-04-25 07:17:00,,0823.3,5.00,0.00,25.7,23.9,00.0,34.4,27.2,18.6,0000.0,0007.04,0003.42,0003.06
2023-04-25 07:18:00,,0823.2,5.01,0.00,25.7,23.8,00.0,34.3,27.2,18.7,0000.0,0006.92,0003.41,0003.04
2023-04-25 07:19:00,,0823.3,4.99,0.00,25.7,23.8,00.0,34.3,27.2,18.9,0000.0,0007.07,0003.42,0003.03
2023-04-25 07:20:00,,0823.3,4.99,0.00,25.6,23.8,00.0,34.3,27.1,19.2,0000.0,0007.34,0003.44,0003.02
2023-04-25 07:21:00,,0823.3,5.01,0.00,25.6,23.8,00.0,34.3,27.2,19.5,0000.0,0007.82,0003.46,0003.01
2023-04-25 07:22:00,,0823.3,5.01,0.00,25.6,23.8,00.0,34.2,27.2,19.5,0000.0,0007.89,0003.46,0003.00
2023-04-25 07:23:00,,0823.4,5.00,0.00,25.6,23.8,00.0,34.2,27.2,19.8,0000.0,0008.03,0003.45,0002.98
2023-04-25 07:24:00,,0823.3,4.99,0.00,25.6,23.8,00.0,34.2,27.2,20.2,0000.0,0008.52,0003.43,0002.95
2023-04-25 07:25:00,,0823.3,4.99,0.00,25.6,23.8,00.0,34.2,27.2,20.5,0000.0,0007.79,0003.41,0002.88
2023-04-25 07:26:00,,0823.3,4.99,0.00,25.6,23.8,00.0,34.2,27.2,20.8,0000.0,0007.72,0003.38,0002.78
2023-04-25 07:27:00,,0823.3,5.01,0.00,25.6,23.7,00.0,34.2,27.2,21.4,0000.0,0007.60,0003.33,0002.69
2023-04-25 07:28:00,,0823.3,5.01,0.00,25.6,23.7,00.0,34.1,27.1,21.3,0000.0,0007.59,0003.29,0002.61
2023-04-25 07:29:00,,0823.3,4.98,0.00,25.5,23.6,00.0,34.1,27.1,21.2,0000.0,0007.68,0003.25,0002.53
2023-04-25 07:30:00,,0823.2,5.00,0.00,25.5,23.6,00.0,34.1,27.0,21.1,0000.0,0007.94,0003.21,0002.44
2023-04-25 07:31:00,,0823.2,5.00,0.00,25.5,23.5,00.0,34.1,27.0,21.4,0000.0,0007.83,0003.15,0002.33
2023-04-25 07:32:00,,0823.3,5.00,0.00,25.5,23.5,00.0,34.1,27.0,21.5,0000.0,0007.36,0003.06,0002.22
2023-04-25 07:33:00,,0823.1,5.00,0.00,25.4,23.4,00.0,34.0,27.0,21.8,0000.0,0007.13,0002.92,0002.10
2023-04-25 07:34:00,,0823.1,4.99,0.00,25.4,23.4,00.0,34.0,26.9,21.5,0000.0,0006.82,0002.84,0002.02
2023-04-25 07:35:00,,0823.2,4.99,0.00,25.4,23.5,00.0,34.0,26.9,21.1,0000.0,0005.46,0002.81,0001.95
2023-04-25 07:36:00,,0823.1,5.00,0.00,25.4,23.5,00.0,34.0,26.9,21.4,0000.0,0005.26,0002.72,0001.91
2023-04-25 07:37:00,,0823.1,5.00,0.00,25.4,23.6,00.0,34.0,27.0,21.2,0000.0,0004.99,0002.62,0001.89
2023-04-25 07:38:00,,0823.1,5.01,0.00,25.4,23.6,00.0,33.9,27.0,21.4,0000.0,0004.92,0002.60,0001.88
2023-04-25 07:39:00,,0823.1,5.01,0.00,25.4,23.7,00.0,33.9,27.0,21.7,0000.0,0004.76,0002.55,0001.86
2023-04-25 07:40:00,,0823.0,4.99,0.00,25.4,23.7,00.0,33.9,27.0,22.0,0000.0,0004.47,0002.50,0001.85
2023-04-25 07:41:00,,0823.0,5.00,0.00,25.4,23.8,00.0,33.9,27.0,22.1,0000.0,0003.74,0002.45,0001.84
2023-04-25 07:42:00,,0822.9,4.99,0.00,25.4,23.8,00.0,33.9,27.1,22.3,0000.0,0003.39,0002.40,0001.84
2023-04-25 07:43:00,,0822.9,4.99,0.00,25.4,23.9,00.0,33.9,27.1,22.5,0000.0,0003.69,0002.39,0001.87
2023-04-25 07:44:00,,0822.9,5.00,0.00,25.5,23.9,00.0,33.9,27.1,22.2,0000.0,0004.06,0002.45,0001.92
2023-04-25 07:45:00,,0823.1,4.99,0.00,25.5,23.9,00.0,33.9,27.1,22.0,0000.0,0003.97,0002.43,0001.94
2023-04-25 07:46:00,,0823.1,5.01,0.00,25.5,23.9,00.0,33.9,27.2,21.8,0000.0,0003.84,0002.40,0001.97
2023-04-25 07:47:00,,0822.8,5.00,0.00,25.5,23.9,00.0,33.9,27.2,21.7,0000.0,0003.95,0002.45,0002.01
2023-04-25 07:48:00,,0822.7,4.99,0.00,25.5,23.9,00.0,33.9,27.2,21.4,0000.0,0004.12,0002.53,0002.05
2023-04-25 07:49:00,,0822.7,5.00,0.00,25.5,23.8,00.0,33.9,27.1,21.0,0000.0,0004.21,0002.57,0002.08
2023-04-25 07:50:00,,0822.7,5.00,0.00,25.4,23.8,00.0,33.9,27.0,21.0,0000.0,0004.32,0002.61,0002.10
2023-04-25 07:51:00,,0822.7,5.00,0.00,25.4,23.8,00.0,33.9,27.0,21.7,0000.0,0004.37,0002.66,0002.12
2023-04-25 07:52:00,,0822.9,4.99,0.00,25.4,23.8,00.0,33.9,27.1,21.8,0000.0,0004.39,0002.67,0002.14
2023-04-25 07:53:00,,0822.4,5.00,0.00,25.4,23.8,00.0,33.9,27.1,21.4,0000.0,0004.34,0002.64,0002.14
2023-04-25 07:54:00,,0822.3,5.00,0.00,25.4,23.9,00.0,33.9,27.1,21.5,0000.0,0004.14,0002.66,0002.13
2023-04-25 07:55:00,,0822.3,5.00,0.00,25.5,23.9,00.0,33.9,27.1,21.5,0000.0,0003.76,0002.63,0002.10
2023-04-25 07:56:00,,0822.2,5.00,0.00,25.5,23.9,00.0,33.9,27.1,21.4,0000.0,0003.76,0002.61,0002.07
2023-04-25 07:57:00,,0822.1,4.99,0.00,25.4,23.9,00.0,33.9,27.1,21.1,0000.0,0003.75,0002.59,0002.05
2023-04-25 07:58:00,,0822.1,5.00,0.00,25.4,23.9,00.0,33.9,27.1,21.3,0000.0,0003.71,0002.58,0002.04
2023-04-25 07:59:00,,0822.2,5.00,0.00,25.4,23.9,00.0,33.9,27.1,21.8,0000.0,0003.64,0002.57,0002.03
